CW2305 Weather Reports


Display with metric or nautical units.
time (UTC)temp
F
wind
direction
speed
MPH
gust
MPH
rain 1hr
in
rain 24hr
in
rain mn
in
humidity
%
barometer
mb
20260902005514 56 193 0.0 2.0 0.00 0.00 0.00 85 1019.6
20260902005012 56 176 0.0 2.0 0.00 0.00 0.00 86 1019.7
20260902004526 56 201 1.0 2.0 0.00 0.00 0.00 85 1019.9
20260902004016 56 360 1.0 2.0 0.00 0.00 0.00 85 1019.9
20260902003515 56 360 0.0 2.0 0.00 0.00 0.00 85 1019.9
20260902003007 56 360 0.0 2.0 0.00 0.00 0.00 84 1019.8
20260902002506 57 360 0.0 3.0 0.00 0.00 0.00 84 1019.9
20260902002006 57 360 0.0 3.0 0.00 0.00 0.00 84 1019.9
20260902001514 57 360 1.0 3.0 0.00 0.00 0.00 84 1019.8
20260902001020 57 360 1.0 3.0 0.00 0.00 0.00 84 1019.9
20260902000512 57 360 1.0 3.0 0.00 0.00 0.00 84 1019.9
20260902000019 57 360 0.0 3.0 0.00 0.00 0.00 84 1020.0
20260901235512 56 360 1.0 3.0 0.00 0.00 0.00 84 1019.9
20260901235017 56 360 1.0 3.0 0.00 0.00 0.00 85 1019.9
20260901234525 56 360 1.0 3.0 0.00 0.00 0.00 85 1019.8
20260901234015 56 360 1.0 3.0 0.00 0.00 0.00 85 1019.8
20260901233515 56 360 1.0 3.0 0.00 0.00 0.00 85 1019.8
20260901233029 56 360 0.0 2.0 0.00 0.00 0.00 85 1019.9
20260901232516 56 360 0.0 3.0 0.00 0.00 0.00 85 1019.9
20260901232003 56 360 1.0 3.0 0.00 0.00 0.00 86 1019.9
20260901231510 55 360 1.0 3.0 0.00 0.00 0.00 85 1020.0
20260901231007 55 360 0.0 2.0 0.00 0.00 0.00 85 1020.1
20260901230510 55 360 0.0 2.0 0.00 0.00 0.00 85 1020.1
20260901230016 55 360 0.0 2.0 0.00 0.00 0.00 84 1020.2
20260901225511 56 360 0.0 2.0 0.00 0.00 0.00 84 1020.2
20260901225012 56 360 0.0 2.0 0.00 0.00 0.00 84 1020.2
20260901224529 56 360 0.0 0.0 0.00 0.00 0.00 83 1020.2
20260901224011 56 196 0.0 0.0 0.00 0.00 0.00 83 1020.2
20260901223515 57 360 0.0 0.0 0.00 0.00 0.00 82 1020.2
20260901223026 57 360 0.0 0.0 0.00 0.00 0.00 82 1020.2
20260901222516 57 360 0.0 0.0 0.00 0.00 0.00 81 1020.2
20260901222016 57 360 0.0 0.0 0.00 0.00 0.00 80 1020.2
20260901221530 58 360 0.0 0.0 0.00 0.00 0.00 79 1020.3
20260901221023 58 360 0.0 0.0 0.00 0.00 0.00 79 1020.2
20260901220509 59 360 0.0 0.0 0.00 0.00 0.00 78 1020.3
20260901220010 59 360 0.0 1.0 0.00 0.00 0.00 78 1020.3
20260901215508 59 223 0.0 2.0 0.00 0.00 0.00 78 1020.3
20260901215013 59 218 0.0 3.0 0.00 0.00 0.00 77 1020.3
20260901214518 60 237 1.0 3.0 0.00 0.00 0.00 77 1020.3
20260901214013 60 360 0.0 3.0 0.00 0.00 0.00 77 1020.3
20260901213512 60 217 1.0 3.0 0.00 0.00 0.00 76 1020.4
20260901213039 60 244 1.0 3.0 0.00 0.00 0.00 76 1020.3
20260901212514 60 244 1.0 3.0 0.00 0.00 0.00 76 1020.3
20260901212016 61 181 1.0 2.0 0.00 0.00 0.00 75 1020.4
20260901211528 61 360 0.0 4.0 0.00 0.00 0.00 75 1020.3
20260901211013 61 247 0.0 4.0 0.00 0.00 0.00 75 1020.3
20260901210517 61 215 2.0 4.0 0.00 0.00 0.00 75 1020.4
20260901210031 61 219 0.0 4.0 0.00 0.00 0.00 75 1020.4
20260901205516 61 240 2.0 4.0 0.00 0.00 0.00 75 1020.5
20260901205018 61 199 1.0 5.0 0.00 0.00 0.00 75 1020.4
20260901204536 61 239 1.0 5.0 0.00 0.00 0.00 75 1020.4
20260901204014 61 209 0.0 4.0 0.00 0.00 0.00 75 1020.4
20260901203519 61 219 1.0 4.0 0.00 0.00 0.00 75 1020.3
20260901203034 61 215 0.0 3.0 0.00 0.00 0.00 76 1020.3
20260901202511 61 250 0.0 2.0 0.00 0.00 0.00 75 1020.3
20260901202013 61 232 0.0 4.0 0.00 0.00 0.00 75 1020.3
20260901201527 62 232 1.0 6.0 0.00 0.00 0.00 75 1020.2
20260901201017 62 175 1.0 6.0 0.00 0.00 0.00 75 1020.2
20260901200518 62 213 0.0 4.0 0.00 0.00 0.00 75 1020.2
20260901200030 62 221 1.0 4.0 0.00 0.00 0.00 75 1020.2
20260901195515 62 180 1.0 3.0 0.00 0.00 0.00 75 1020.3
20260901195015 62 233 0.0 2.0 0.00 0.00 0.00 75 1020.2
20260901194537 62 217 0.0 2.0 0.00 0.00 0.00 75 1020.2
20260901194020 62 221 0.0 2.0 0.00 0.00 0.00 75 1020.2
20260901193516 62 217 0.0 2.0 0.00 0.00 0.00 75 1020.2
20260901193034 62 205 0.0 2.0 0.00 0.00 0.00 74 1020.2
20260901192518 62 234 0.0 2.0 0.00 0.00 0.00 74 1020.3
20260901192019 62 231 0.0 2.0 0.00 0.00 0.00 74 1020.2
20260901191528 62 180 0.0 4.0 0.00 0.00 0.00 74 1020.2
20260901191016 62 223 0.0 4.0 0.00 0.00 0.00 74 1020.2
20260901190518 62 263 0.0 3.0 0.00 0.00 0.00 74 1020.2
20260901190028 63 252 1.0 3.0 0.00 0.00 0.00 73 1020.2
20260901185516 63 244 0.0 2.0 0.00 0.00 0.00 73 1020.2
20260901185016 63 294 0.0 5.0 0.00 0.00 0.00 72 1020.2
20260901184557 63 247 2.0 6.0 0.00 0.00 0.00 72 1020.3
20260901184020 63 201 2.0 6.0 0.00 0.00 0.00 72 1020.2
20260901183523 63 229 2.0 6.0 0.00 0.00 0.00 72 1020.2
20260901183031 63 216 2.0 8.0 0.00 0.00 0.00 71 1020.2
20260901182510 63 263 3.0 8.0 0.00 0.00 0.00 71 1020.0
20260901182015 63 266 1.0 8.0 0.00 0.00 0.00 71 1020.0
20260901181540 63 272 3.0 8.0 0.00 0.00 0.00 70 1020.0
20260901181015 63 254 4.0 9.0 0.00 0.00 0.00 70 1020.0
20260901180514 64 273 3.0 9.0 0.00 0.00 0.00 69 1020.1
20260901180031 64 192 3.0 9.0 0.00 0.00 0.00 69 1020.0
20260901175515 64 255 4.0 10.0 0.00 0.00 0.00 68 1020.1
20260901175003 64 224 5.0 12.0 0.00 0.00 0.00 67 1020.1
20260901174528 64 360 4.0 12.0 0.00 0.00 0.00 67 1020.0
20260901174008 65 360 3.0 10.0 0.00 0.00 0.00 67 1019.9
20260901173506 65 360 2.0 10.0 0.00 0.00 0.00 67 1019.9
20260901173014 66 360 5.0 15.0 0.00 0.00 0.00 67 1020.1
20260901172513 66 360 6.0 15.0 0.00 0.00 0.00 66 1020.1
20260901172010 66 360 4.0 12.0 0.00 0.00 0.00 65 1020.0
20260901171530 67 360 2.0 12.0 0.00 0.00 0.00 64 1020.1
20260901171014 67 360 3.0 12.0 0.00 0.00 0.00 63 1019.9
20260901170515 67 195 4.0 9.0 0.00 0.00 0.00 62 1019.8
20260901170028 68 187 2.0 7.0 0.00 0.00 0.00 61 1019.7
20260901165514 68 268 2.0 7.0 0.00 0.00 0.00 60 1019.7
20260901165013 68 228 2.0 10.0 0.00 0.00 0.00 60 1019.6
20260901164537 68 227 3.0 10.0 0.00 0.00 0.00 61 1019.8
20260901164007 68 229 4.0 9.0 0.00 0.00 0.00 61 1019.9
20260901163507 68 181 4.0 10.0 0.00 0.00 0.00 61 1019.8
20260901163011 68 219 5.0 10.0 0.00 0.00 0.00 61 1019.9
20260901162509 68 224 3.0 8.0 0.00 0.00 0.00 62 1019.8
20260901162012 68 283 2.0 8.0 0.00 0.00 0.00 61 1019.8
20260901161522 68 257 2.0 8.0 0.00 0.00 0.00 60 1019.7
20260901161011 68 275 3.0 7.0 0.00 0.00 0.00 59 1019.7
20260901160514 68 266 1.0 7.0 0.00 0.00 0.00 59 1019.6
20260901160037 68 245 2.0 5.0 0.00 0.00 0.00 58 1019.7
20260901155512 68 229 2.0 6.0 0.00 0.00 0.00 58 1019.7
20260901155017 69 255 1.0 6.0 0.00 0.00 0.00 58 1019.8
20260901154533 69 271 1.0 8.0 0.00 0.00 0.00 58 1019.8
20260901154016 69 265 1.0 10.0 0.00 0.00 0.00 58 1019.7
20260901153519 69 271 4.0 10.0 0.00 0.00 0.00 58 1019.7
20260901153013 69 257 1.0 8.0 0.00 0.00 0.00 58 1019.7
20260901152509 69 261 3.0 11.0 0.00 0.00 0.00 57 1019.8
20260901152014 69 159 4.0 11.0 0.00 0.00 0.00 57 1019.8
20260901151516 69 225 2.0 5.0 0.00 0.00 0.00 56 1019.8
20260901151012 70 189 2.0 5.0 0.00 0.00 0.00 56 1019.8
20260901150510 70 306 2.0 5.0 0.00 0.00 0.00 55 1019.9
20260901150025 70 255 2.0 8.0 0.00 0.00 0.00 56 1019.9
20260901145514 70 264 2.0 8.0 0.00 0.00 0.00 57 1019.8
20260901145019 69 245 3.0 8.0 0.00 0.00 0.00 56 1019.9
20260901144526 69 256 2.0 6.0 0.00 0.00 0.00 57 1019.8
20260901144015 69 199 2.0 8.0 0.00 0.00 0.00 57 1019.9
20260901143518 69 244 3.0 11.0 0.00 0.00 0.00 57 1020.0
20260901143031 69 254 5.0 11.0 0.00 0.00 0.00 56 1020.1
20260901142518 69 275 0.0 6.0 0.00 0.00 0.00 56 1020.1
20260901142008 69 263 2.0 7.0 0.00 0.00 0.00 54 1020.2
20260901141512 69 278 3.0 7.0 0.00 0.00 0.00 54 1020.2
20260901141012 69 248 3.0 9.0 0.00 0.00 0.00 54 1020.1
20260901140513 69 246 3.0 9.0 0.00 0.00 0.00 55 1020.1
20260901140025 70 210 3.0 10.0 0.00 0.00 0.00 55 1020.1
20260901135513 70 257 4.0 10.0 0.00 0.01 0.00 54 1020.2
20260901135018 69 214 5.0 10.0 0.00 0.01 0.00 55 1020.1
20260901134527 69 281 1.0 8.0 0.00 0.01 0.00 56 1020.0
20260901134018 69 257 2.0 9.0 0.00 0.01 0.00 54 1020.0
20260901133514 70 229 4.0 10.0 0.00 0.01 0.00 53 1020.1
20260901133027 70 266 3.0 10.0 0.00 0.01 0.00 52 1020.2
20260901132515 71 188 3.0 9.0 0.00 0.01 0.00 52 1020.2
20260901132016 71 277 3.0 10.0 0.00 0.01 0.00 52 1020.2
20260901131532 71 211 4.0 10.0 0.00 0.01 0.00 52 1020.2
20260901131008 70 245 5.0 10.0 0.00 0.01 0.00 52 1020.3
20260901130512 70 250 2.0 10.0 0.00 0.01 0.00 53 1020.2
20260901130025 70 294 2.0 9.0 0.00 0.01 0.00 53 1020.2
20260901125512 69 260 3.0 11.0 0.00 0.01 0.00 51 1020.2
20260901125010 69 223 4.0 11.0 0.00 0.01 0.00 51 1020.2
20260901124532 69 255 3.0 14.0 0.00 0.01 0.00 51 1020.3
20260901124016 69 187 5.0 14.0 0.00 0.01 0.00 51 1020.3
20260901123514 69 200 7.0 14.0 0.00 0.01 0.00 49 1020.4
20260901123043 70 251 3.0 9.0 0.00 0.01 0.00 50 1020.4
20260901122516 70 233 4.0 11.0 0.00 0.01 0.00 52 1020.5
20260901122015 70 232 4.0 12.0 0.00 0.01 0.00 51 1020.5
20260901121533 70 264 4.0 10.0 0.00 0.01 0.00 52 1020.4
20260901121016 70 225 2.0 13.0 0.00 0.01 0.00 53 1020.4
20260901120517 69 256 4.0 13.0 0.00 0.01 0.00 53 1020.6
20260901120014 69 239 4.0 10.0 0.00 0.01 0.00 53 1020.5
20260901115511 69 202 4.0 10.0 0.00 0.01 0.00 53 1020.5
20260901115015 69 221 3.0 8.0 0.00 0.01 0.00 53 1020.4
20260901114524 69 279 4.0 14.0 0.00 0.01 0.00 53 1020.4
20260901114012 68 238 3.0 14.0 0.00 0.01 0.00 52 1020.4
20260901113513 68 237 3.0 10.0 0.00 0.01 0.00 53 1020.4
20260901113034 68 198 5.0 12.0 0.00 0.01 0.00 53 1020.4
20260901112515 68 256 5.0 12.0 0.00 0.01 0.00 52 1020.4
20260901112015 68 171 3.0 10.0 0.00 0.01 0.00 55 1020.3
20260901111531 68 194 2.0 9.0 0.00 0.01 0.00 56 1020.4
20260901111016 68 288 3.0 9.0 0.00 0.01 0.00 54 1020.5
20260901110515 68 222 4.0 9.0 0.00 0.01 0.00 54 1020.5
20260901110030 68 244 3.0 8.0 0.00 0.01 0.00 56 1020.4
20260901105517 67 282 2.0 9.0 0.00 0.01 0.00 57 1020.4
20260901105009 67 241 4.0 12.0 0.00 0.01 0.00 57 1020.4
20260901104518 67 200 4.0 12.0 0.00 0.01 0.00 57 1020.5
20260901104014 67 188 2.0 9.0 0.00 0.01 0.00 59 1020.5
20260901103511 67 186 4.0 10.0 0.00 0.01 0.00 59 1020.5
20260901103028 67 210 4.0 10.0 0.00 0.01 0.00 63 1020.6
20260901102513 66 212 4.0 10.0 0.00 0.01 0.00 62 1020.6
20260901102015 66 265 3.0 9.0 0.00 0.01 0.00 63 1020.5
20260901101528 66 209 2.0 9.0 0.00 0.01 0.00 64 1020.5
20260901101017 65 173 3.0 9.0 0.00 0.01 0.00 64 1020.6
20260901100515 65 277 3.0 11.0 0.00 0.01 0.00 66 1020.7
20260901100030 65 175 6.0 11.0 0.00 0.01 0.00 66 1020.8
20260901095519 64 171 4.0 10.0 0.00 0.01 0.00 67 1020.8
20260901095017 64 240 6.0 10.0 0.00 0.01 0.00 66 1020.8
20260901094534 64 202 3.0 12.0 0.00 0.01 0.00 67 1020.9
20260901094013 64 273 5.0 12.0 0.00 0.01 0.00 68 1020.8
20260901093513 63 236 3.0 8.0 0.00 0.01 0.00 70 1020.8
20260901093024 63 245 4.0 9.0 0.00 0.01 0.00 69 1020.9
20260901092512 63 248 2.0 9.0 0.00 0.01 0.00 72 1020.8
20260901092004 63 148 3.0 7.0 0.00 0.01 0.00 71 1020.8
20260901091503 62 201 3.0 8.0 0.00 0.01 0.00 72 1020.9
20260901091002 62 209 4.0 11.0 0.00 0.01 0.00 74 1020.9
20260901090502 61 360 4.0 11.0 0.00 0.01 0.00 73 1021.0
20260901090013 61 171 5.0 11.0 0.00 0.01 0.00 74 1021.0
20260901085507 61 213 3.0 10.0 0.00 0.01 0.00 76 1021.1
20260901085012 60 143 4.0 9.0 0.00 0.01 0.00 76 1021.0
20260901084515 60 236 2.0 8.0 0.00 0.01 0.00 77 1021.0
20260901084009 60 360 3.0 10.0 0.00 0.01 0.00 77 1021.0
20260901083513 60 360 3.0 11.0 0.00 0.01 0.00 77 1021.0
20260901083023 60 360 3.0 11.0 0.00 0.01 0.00 79 1021.0
20260901082513 60 232 3.0 8.0 0.00 0.01 0.00 80 1021.0
20260901082013 59 203 3.0 8.0 0.00 0.01 0.00 81 1021.0
20260901081526 59 233 3.0 7.0 0.00 0.01 0.00 82 1020.9
20260901081004 58 187 3.0 7.0 0.00 0.01 0.00 84 1020.9
20260901080508 58 257 2.0 7.0 0.00 0.01 0.00 86 1020.9
20260901080013 57 215 2.0 7.0 0.00 0.01 0.00 87 1020.8
20260901075507 56 257 2.0 8.0 0.00 0.01 0.00 89 1020.7
20260901075010 56 207 3.0 8.0 0.00 0.01 0.00 90 1020.8
20260901074512 55 192 3.0 5.0 0.00 0.01 0.00 92 1020.8
20260901074007 54 232 3.0 6.0 0.00 0.01 0.00 94 1020.8
20260901073508 54 214 2.0 6.0 0.00 0.01 0.00 95 1020.7
20260901073024 53 187 2.0 4.0 0.00 0.01 0.00 96 1020.8
20260901072511 53 186 2.0 4.0 0.00 0.01 0.00 96 1020.8
20260901072012 53 360 0.0 2.0 0.00 0.01 0.00 96 1020.7
20260901071523 52 250 1.0 2.0 0.00 0.01 0.00 96 1020.7
20260901071015 52 237 0.0 2.0 0.00 0.01 0.00 96 1020.6
20260901070513 51 232 0.0 2.0 0.00 0.01 0.00 95 1020.5
20260901070003 51 360 0.0 2.0 0.00 0.01 0.00 95 1020.5
20260901065512 51 360 0.0 2.0 0.00 0.01 0.00 95 1020.4
20260901065003 50 360 1.0 2.0 0.00 0.01 0.00 95 1020.4
20260901064510 50 360 0.0 2.0 0.00 0.01 0.00 95 1020.4
20260901064009 50 360 1.0 2.0 0.00 0.01 0.00 95 1020.5
20260901063510 50 360 0.0 2.0 0.00 0.01 0.00 95 1020.5
20260901063025 49 360 0.0 2.0 0.00 0.01 0.00 95 1020.5
20260901062509 49 209 0.0 2.0 0.00 0.01 0.00 95 1020.4
20260901062013 49 241 0.0 2.0 0.00 0.01 0.00 95 1020.4
20260901061522 49 231 0.0 2.0 0.00 0.01 0.00 95 1020.4
20260901061015 48 221 0.0 0.0 0.00 0.01 0.00 95 1020.4
20260901060515 48 232 0.0 0.0 0.00 0.01 0.00 94 1020.4
20260901060031 48 205 0.0 0.0 0.00 0.01 0.00 94 1020.3
20260901055514 48 204 0.0 0.0 0.00 0.01 0.00 94 1020.3
20260901055016 48 197 0.0 0.0 0.00 0.01 0.00 94 1020.2
20260901054507 48 212 0.0 0.0 0.00 0.01 0.00 94 1020.1
20260901054007 48 216 0.0 0.0 0.00 0.01 0.00 94 1020.1
20260901053508 48 216 0.0 0.0 0.00 0.01 0.00 94 1020.1
20260901053022 48 216 0.0 0.0 0.00 0.01 0.00 94 1020.0
20260901052511 48 216 0.0 0.0 0.00 0.01 0.00 94 1020.0
20260901052011 48 216 0.0 0.0 0.00 0.01 0.00 94 1020.0
20260901051532 48 201 0.0 0.0 0.00 0.01 0.00 93 1020.0
20260901051013 48 201 0.0 0.0 0.00 0.01 0.00 94 1020.0
20260901050513 49 198 0.0 0.0 0.00 0.01 0.00 94 1020.0
20260901050029 49 197 0.0 0.0 0.00 0.01 0.00 94 1019.9
20260901045517 49 197 0.0 0.0 0.00 0.01 0.00 94 1019.9
20260901045013 49 202 0.0 0.0 0.00 0.01 0.00 94 1019.9
20260901044528 49 202 0.0 0.0 0.00 0.01 0.00 94 1019.9
20260901044016 49 202 0.0 0.0 0.00 0.01 0.00 94 1019.9
20260901043507 49 202 0.0 2.0 0.00 0.01 0.00 94 1019.9
20260901043008 49 198 0.0 2.0 0.00 0.01 0.00 94 1019.9
20260901042510 49 201 0.0 0.0 0.00 0.01 0.00 94 1019.8
20260901042007 49 199 0.0 0.0 0.00 0.01 0.00 94 1019.9
20260901041517 49 197 0.0 2.0 0.00 0.01 0.00 94 1019.7
20260901041013 49 360 0.0 2.0 0.00 0.01 0.00 94 1019.7
20260901040514 49 360 0.0 2.0 0.00 0.01 0.00 94 1019.7
20260901040030 48 360 0.0 2.0 0.00 0.01 0.00 94 1019.7
20260901035514 48 360 0.0 2.0 0.00 0.01 0.00 94 1019.7
20260901035015 48 360 0.0 2.0 0.00 0.01 0.00 93 1019.7
20260901034528 48 360 0.0 0.0 0.00 0.01 0.00 93 1019.7
20260901034019 48 360 0.0 2.0 0.00 0.01 0.00 93 1019.7
20260901033517 48 360 0.0 2.0 0.00 0.01 0.00 93 1019.7
20260901033032 48 360 0.0 2.0 0.00 0.01 0.00 92 1019.6
20260901032516 48 360 0.0 0.0 0.00 0.01 0.00 92 1019.6
20260901032008 49 360 0.0 2.0 0.00 0.01 0.00 92 1019.6
20260901031518 49 360 0.0 2.0 0.00 0.01 0.00 92 1019.6
20260901031009 49 360 0.0 1.0 0.00 0.01 0.00 92 1019.6
20260901030510 49 360 0.0 2.0 0.00 0.01 0.00 93 1019.6
20260901030020 49 360 0.0 2.0 0.00 0.01 0.00 93 1019.7
20260901025511 49 360 0.0 2.0 0.00 0.01 0.00 93 1019.7
20260901025014 49 223 0.0 2.0 0.00 0.01 0.00 92 1019.6
20260901024526 49 236 0.0 2.0 0.00 0.01 0.00 92 1019.6
20260901024020 49 223 0.0 0.0 0.00 0.01 0.00 92 1019.7
20260901023514 50 223 0.0 0.0 0.00 0.01 0.00 92 1019.7
20260901023040 50 235 0.0 0.0 0.00 0.01 0.00 92 1019.7
20260901022518 50 235 0.0 0.0 0.00 0.01 0.00 92 1019.7
20260901022015 50 235 0.0 0.0 0.00 0.01 0.00 92 1019.7
20260901021531 50 235 0.0 0.0 0.00 0.01 0.00 93 1019.7
20260901021007 50 235 0.0 0.0 0.00 0.01 0.00 93 1019.8
20260901020509 50 235 0.0 2.0 0.00 0.01 0.00 93 1019.8
20260901020016 50 235 0.0 2.0 0.00 0.01 0.00 93 1019.8
20260901015511 50 238 0.0 2.0 0.00 0.01 0.00 92 1019.8
20260901015012 50 360 0.0 2.0 0.00 0.01 0.00 92 1019.7
20260901014532 50 238 0.0 2.0 0.00 0.01 0.00 92 1019.8
20260901014015 50 360 0.0 2.0 0.00 0.01 0.00 92 1019.8
20260901013515 50 360 0.0 2.0 0.00 0.01 0.00 92 1019.8
20260901013031 50 360 0.0 2.0 0.00 0.01 0.00 92 1019.6
20260901012517 50 242 0.0 2.0 0.00 0.01 0.00 92 1019.7
20260901012014 50 360 0.0 2.0 0.00 0.01 0.00 92 1019.7
20260901011532 50 360 0.0 2.0 0.00 0.01 0.00 92 1019.8
20260901011019 50 360 0.0 2.0 0.00 0.01 0.00 91 1019.7
20260901010520 50 360 0.0 2.0 0.00 0.01 0.00 91 1019.7
20260901010035 50 360 0.0 0.0 0.00 0.02 0.00 90 1019.7